Location: Babinek
(53.1376°N, 14.5459°E)
Time: 11:42:15
(UTC+00:00)

Daily predictions for brighter satellites

Satellite Brightness Start Highest point End
(mag) Time Altitude Azimuth Time Altitude Azimuth Time Altitude Azimuth
ATLAS 5 CENTAUR R/B 2.6 16:09:37 10° W 16:13:41 39° NNW 16:18:22 10° NE
ISS -3.3 16:13:43 10° WSW 16:17:03 56° SSE 16:20:23 10° E
Iridium 4 Rocket 4.4 16:13:48 10° NNE 16:18:27 27° ENE 16:22:46 10° SE
CZ-4C R/B 3.4 16:14:15 10° W 16:19:31 37° NNW 16:25:52 10° NE
Okean O Rocket 1.6 16:15:34 10° SSE 16:19:58 74° ENE 16:24:24 10° NNW
ADEOS Rocket 3.6 16:15:09 10° N 16:20:54 54° WNW 16:26:15 10° SW
USA 234 3.4 16:19:10 10° ENE 16:25:42 72° NNW 16:32:13 10° W
CZ-4 R/B 2.4 16:22:34 10° ESE 16:25:47 24° ENE 16:28:58 10° N
ERS-2 4.1 16:24:38 10° ENE 16:26:08 12° E 16:27:37 10° ESE
Cosmos 2278 Rocket 3.5 16:26:54 10° SSE 16:30:57 20° E 16:35:00 10° NE
Okean-O 3.5 16:28:04 10° ESE 16:31:49 28° ENE 16:35:35 10° N
Meteor 1-24 Rocket 4.3 16:27:44 10° SSW 16:32:56 55° WNW 16:38:12 10° N
CORIOLIS 4.4 16:29:44 10° SSE 16:35:07 77° WSW 16:40:31 10° NNW
Cosmos 2297 Rocket 4.3 16:33:07 10° NW 16:36:14 15° NNW 16:39:19 10° NNE
NOSS 2-1 (E) 4.0 16:33:50 10° S 16:36:46 29° SE 16:39:26 13° ENE
CZ-2C R/B 3.4 16:31:32 10° SE 16:36:54 52° ENE 16:42:31 10° N
COSMOS 2455 3.2 16:31:27 10° SW 16:37:28 68° NW 16:43:31 10° NE
Cosmos 1340 3.5 16:34:18 10° SSE 16:37:36 30° E 16:40:56 10° NNE
Cosmos 1346 Rocket 4.4 16:35:17 10° ESE 16:37:37 15° E 16:39:37 11° NE
CZ-4B R/B 3.6 16:32:55 10° S 16:38:33 72° WSW 16:44:14 10° NNW
Aureole 2 Rocket 3.4 16:36:37 10° SW 16:39:33 40° WNW 16:42:33 10° NNE
SMAP 3.9 16:38:21 10° S 16:42:55 55° W 16:47:31 10° NNW
Cosmos 2058 Rocket 4.3 16:39:42 10° NNW 16:44:04 48° W 16:48:23 10° SSW
Cosmos 1455 2.7 16:42:16 10° NNW 16:46:05 64° W 16:49:54 10° S
Cosmos 405 3.2 16:43:08 10° N 16:46:34 45° ENE 16:49:58 10° SSE
ARGOS 3.8 16:45:26 10° ESE 16:50:09 32° ENE 16:54:54 10° N
Cosmos 1626 Rocket 3.5 16:47:27 10° S 16:51:50 66° E 16:56:17 10° NNE
Cosmos 1092 Rocket 4.0 16:46:45 10° S 16:52:44 56° E 16:58:43 10° NNE
Cosmos 2263 Rocket 3.8 16:49:19 10° W 16:54:11 28° NW 16:59:02 10° NNE
CZ-4C R/B 3.8 16:51:16 10° N 16:54:21 46° WNW 16:57:26 10° SW
Cosmos 1898 Rocket 3.6 16:50:08 10° S 16:55:15 56° ESE 17:00:22 10° NNE
CZ-2C R/B 4.1 16:52:21 12° NE 16:55:17 17° E 16:58:47 10° SE
Cosmos 1680 Rocket 4.4 16:51:39 10° NNW 16:56:46 54° WSW 17:01:49 10° S
TELKOM 3 4.2 16:55:05 10° WSW 16:57:03 30° S 16:58:27 16° SE
Nadezhda 4 Rocket 4.0 16:55:17 10° S 17:01:30 85° W 17:07:43 10° N
CZ-4B R/B 1.5 16:59:40 10° NNE 17:02:57 51° ESE 17:06:06 10° S
Cosmos 1048 Rocket 4.4 16:58:57 10° NNW 17:03:47 39° NE 17:08:37 10° ESE
Landsat 5 4.3 17:00:16 10° N 17:04:01 46° WNW 17:07:40 10° SW
Cosmos 1328 3.8 17:00:10 10° S 17:04:03 55° E 17:07:57 10° NNE
Meteor 2-15 4.5 16:58:26 10° N 17:04:33 60° ENE 17:10:38 10° SSE
MOS 1 Rocket 3.3 17:00:27 10° NNE 17:04:35 45° E 17:08:44 10° S
CZ-2D R/B 3.2 17:02:58 10° SSE 17:06:48 87° E 17:10:39 10° NNW
Meteor 2-8 Rocket 4.4 17:00:51 10° N 17:07:00 82° ENE 17:13:08 10° SSE
Cosmos-2242 3.0 17:03:55 10° N 17:08:10 56° ENE 17:12:24 10° SSE
Meteor 1-11 4.5 17:05:04 10° SSE 17:10:25 46° E 17:15:46 10° NNE
COSMO-SKYMED 1 2.5 17:07:39 10° NNE 17:12:00 63° ESE 17:16:18 10° S
BREEZE-M DEB (TANK) 3.1 17:14:01 10° WSW 17:16:03 31° S 17:17:14 20° SE
Cosmos 1937 Rocket 3.5 17:12:39 10° S 17:17:54 64° ESE 17:23:07 10° NNE
Cosmos 1758 Rocket 3.7 17:14:12 10° S 17:18:33 53° E 17:22:57 10° NNE
Cosmos 2098 Rocket 4.3 17:12:12 10° S 17:19:31 63° E 17:26:25 10° NNE
USA 290 2.5 17:17:22 10° NNW 17:20:33 67° WSW 17:23:43 10° SSE
CSL-04 Debris 4.2 17:18:25 10° SE 17:23:39 54° ENE 17:28:54 10° N
Cosmos 1833 Rocket 2.9 17:18:52 10° NW 17:24:29 73° WSW 17:30:04 10° SSE
SL-08 RB Rocket 4.1 17:21:13 12° SE 17:24:59 37° ENE 17:29:06 10° N
NOSS 2-1 (C) 2.8 17:22:26 10° SW 17:25:44 89° SE 17:27:19 31° NE
Cosmos 2221 3.7 17:23:50 10° N 17:26:48 25° NE 17:26:48 25° NE
NOSS 2-2 (C) 4.3 17:24:01 10° NW 17:28:47 56° NE 17:32:40 23° ESE
H-2A R/B 3.2 17:24:54 10° N 17:29:06 44° WNW 17:33:12 10° SW
H-2A R/B 1.9 17:24:09 10° SSE 17:29:14 77° ENE 17:34:30 10° NNW
NOSS 2-1 (D) 2.9 17:28:22 10° SW 17:31:41 82° NW 17:33:06 34° NE
Helios 1A Rocket 2.8 17:27:39 10° SSE 17:31:46 66° ENE 17:35:54 10° N
SeaSat 1 4.0 17:28:06 10° NNE 17:32:27 32° NW 17:36:48 10° WSW
Cosmos 389 Rocket 3.1 17:29:12 10° N 17:32:02 36° NE 17:32:02 36° NE
CZ-3B R/B 3.3 17:32:25 10° W 17:35:02 37° SSW 17:41:53 10° SE
Cosmos 1602 Rocket 3.9 17:31:03 10° SSW 17:35:24 66° WNW 17:39:50 10° N
Cosmos 44 3.7 17:31:03 10° SW 17:35:58 66° NW 17:39:31 21° NE
Cosmos 2026 Rocket 3.9 17:30:31 10° S 17:36:41 87° E 17:43:01 10° N
Cosmos 1417 Rocket 4.4 17:31:19 10° N 17:37:33 71° ENE 17:43:49 10° SSE
Meteor 2-15 Rocket 4.4 17:31:30 10° N 17:37:42 80° ENE 17:43:51 10° SSE
SJ 16-02 3.1 17:35:06 10° WSW 17:39:00 30° NW 17:42:55 10° N
Cosmos 1689 Rocket 3.8 17:41:34 21° S 17:41:34 21° S 17:42:44 10° S
Cosmos 1553 Rocket 4.0 17:34:17 10° N 17:40:45 83° ENE 17:47:05 10° SSE
YAOGAN 1 2.6 17:36:31 10° SSE 17:40:50 82° WSW 17:45:12 10° NNW
Aureole 3 Rocket 3.6 17:38:36 10° NNW 17:41:39 46° W 17:45:18 10° S
Cosmos 990 Rocket 4.5 17:37:14 10° SW 17:42:23 60° WNW 17:47:32 10° NNE
SJ-11-01 4.2 17:37:58 10° SSE 17:42:39 89° ENE 17:47:22 10° NNW
COSMOS 2406 4.2 17:38:10 10° NW 17:43:43 49° WSW 17:49:14 10° S
Cosmos 2082 Rocket 2.2 17:38:35 10° NNW 17:44:22 87° WSW 17:50:04 10° SSE
Cosmos 1844 Rocket 3.9 17:39:11 10° WSW 17:44:28 40° NW 17:49:47 10° NNE
Meteor 1-27 4.2 17:42:01 10° NNW 17:47:41 88° WSW 17:53:15 10° S
HJ-1C 3.2 17:47:04 33° SSE 17:48:27 80° ENE 17:51:50 10° NNW
Cosmos 1825 Rocket 3.4 17:46:00 10° S 17:50:23 79° E 17:54:52 10° NNE
X-37B 3.3 17:48:53 10° SW 17:50:24 13° SSW 17:51:36 11° S
deb Kosmos-1763 4.1 17:47:23 10° NNW 17:50:59 75° WSW 17:52:52 26° SSE
NOSS 2-2 (E) 4.2 17:46:58 10° NW 17:52:05 79° NE 17:56:04 26° SE
ISS -3.6 17:50:23 10° W 17:53:45 65° S 17:53:50 65° S
ATLAS 2AS CENTAUR R/B 3.8 17:50:20 10° WNW 17:57:33 38° N 18:00:55 26° NE
MetOp-A 4.3 17:56:25 39° ESE 17:57:50 48° ENE 18:02:59 10° N
Iridium 4 Rocket 4.3 17:53:29 10° N 17:58:49 54° W 18:03:41 10° SSW
Cosmos 2315 Rocket 4.1 17:53:05 10° N 17:59:08 48° ENE 18:01:36 32° SE
Cosmos 2227 Rocket 4.3 17:56:44 10° NNW 17:59:14 13° N 18:01:04 11° NNE
ATLAS 5 CENTAUR R/B 3.3 17:55:34 10° WNW 17:59:30 26° N 18:00:57 23° NNE
SKYMED 2 4.5 17:55:51 10° N 18:00:03 49° WNW 18:04:14 10° SW
ERS-2 2.2 17:58:38 33° N 18:00:09 75° WNW 18:03:47 10° SSW
Cosmos 883 Rocket 4.5 17:54:08 10° N 18:00:16 57° ENE 18:05:20 15° SSE
CZ-4 R/B 2.5 17:56:46 10° S 18:00:37 44° W 18:04:26 10° NNW
CSL-04 Rocket 3.7 17:59:24 10° SSE 18:04:53 84° WSW 18:10:28 10° NNW
S3M 3.9 18:01:05 10° N 18:07:15 89° ENE 18:13:24 10° S
Okean-O 3.7 18:03:51 10° S 18:08:07 46° W 18:12:25 10° NNW
USA 234 3.3 18:05:52 38° ENE 18:08:29 66° N 18:14:58 10° WNW
IRS-1A Rocket 4.5 18:08:25 45° E 18:09:32 51° ENE 18:15:10 10° N
CZ-4C R/B 3.5 18:03:52 10° NW 18:09:38 37° NNE 18:11:46 31° NE
Ariane Rocket 3.4 18:11:25 43° NE 18:11:25 43° NE 18:15:35 10° N
Cosmos 1346 Rocket 3.2 18:09:36 10° SSW 18:13:30 62° WNW 18:15:11 32° N
Cosmos 1655 Rocket 3.8 18:07:38 10° S 18:13:48 69° E 18:20:01 10° NNE
Cosmos 2278 Rocket 2.2 18:08:39 10° SSW 18:14:20 86° WNW 18:17:11 31° NNE
Cosmos 1953 Rocket 3.4 18:12:32 10° SSW 18:16:53 85° WNW 18:17:58 51° N
SAR-Lupe-4 4.1 18:17:50 55° NW 18:18:05 57° WNW 18:21:36 10° SSW
USA 281 3.9 18:17:58 34° NE 18:18:11 34° NE 18:23:57 10° NNW
Cosmos 2292 Rocket 3.9 18:17:06 10° S 18:20:40 51° SSW 18:20:40 51° SSW
Cosmos 2297 Rocket 4.2 18:20:00 10° NNW 18:22:51 14° NNE 18:23:18 14° NNE
Genesis I 4.3 18:19:50 10° NW 18:22:30 38° NNW 18:22:30 38° NNW
COSMOS 2455 4.4 18:19:21 10° W 18:24:28 28° NNW 18:27:32 19° NNE
Cosmos 44 Rocket 4.0 18:19:43 10° SSW 18:23:19 42° SSE 18:23:19 42° SSE
NOSS 2-1 (E) 4.3 18:23:54 10° W 18:26:46 37° NW 18:26:46 37° NW
Cosmos 1842 Rocket 4.1 18:24:04 10° N 18:27:18 48° N 18:27:18 48° N
Meteor 2-2 Rocket 4.3 18:22:51 10° NNW 18:28:51 86° WSW 18:34:20 13° S
Cosmos 1869 4.0 18:25:33 10° NNW 18:29:21 51° W 18:30:10 42° SW
ARGOS 3.9 18:25:01 10° S 18:30:14 52° W 18:35:31 10° NNW
NOSS 2-2 (D) 4.3 18:26:25 10° NW 18:31:33 78° SW 18:33:29 47° SSE
CZ-4B R/B 4.3 18:32:43 10° NNW 18:34:47 16° WNW 18:36:48 10° W
CZ-2C R/B 2.6 18:33:46 33° NNE 18:36:25 83° ESE 18:42:03 10° SSW
Cosmos 372 Rocket 4.4 18:32:47 10° SW 18:37:56 61° WNW 18:39:58 36° N
Cosmos 2263 Rocket 4.5 18:37:18 10° NW 18:40:07 14° NNW 18:42:20 11° NNE
Cosmos 494 Rocket 4.4 18:35:55 10° NNW 18:40:59 60° WSW 18:42:29 42° SSW
Cosmos 2150 Rocket 4.3 18:41:53 10° SSW 18:45:58 57° SSW 18:45:58 57° SSW
MOS 1 4.2 18:51:16 84° N 18:51:16 84° N 18:56:51 10° NNW
Resurs 01 Rocket 4.3 19:00:28 10° N 19:00:28 10° N 19:00:31 10° N
Cosmos 909 Rocket 4.1 18:53:19 10° NW 18:59:46 87° NE 19:00:09 81° ESE
Cosmos 2221 4.2 19:01:06 10° NNW 19:03:42 31° NW 19:03:42 31° NW
Cosmos 2266 Rocket 4.4 19:10:05 10° SSW 19:16:12 58° WNW 19:22:15 10° N
NOSS 3-4 (A) 4.2 19:25:30 10° NW 19:30:38 50° N 19:30:38 50° N
NOSS 3-4 (C) 4.3 19:25:36 10° NW 19:30:44 49° N 19:30:44 49° N
ATLAS 5 CENTAUR R/B 4.1 19:40:41 10° NW 19:42:29 21° NNW 19:42:29 21° NNW
Cosmos 2227 Rocket 4.5 19:41:22 10° NNW 19:42:53 15° N 19:42:53 15° N
ATLAS 2AS CENTAUR R/B 3.5 19:42:27 10° NW 19:48:21 47° NNW 19:48:21 47° NNW
USA 234 3.8 19:53:12 53° WNW 19:53:12 53° WNW 19:58:02 10° WNW
Cosmos 2278 Rocket 4.1 19:54:34 10° W 19:59:05 26° NW 19:59:05 26° NW
CZ-4C R/B 3.6 19:52:37 10° NW 19:56:58 43° NNW 19:56:58 43° NNW
USA 281 4.2 20:04:50 40° NW 20:04:50 40° NW 20:08:52 10° NNW
